Starlink 1362

operational
NORAD ID: 45538 Int'l Des: 2020-025 Owner: SPXS Country: US Constellation: starlink
LEOCIRCULARSTARLINK_TYPE

关于 Starlink 1362

正在加载描述...

实时位置

正在加载3D地球...

即将过境

高度历史

Altitude vs Time

uPlot chart will show altitude changes over time

两行轨道根数

1 45538U 20025H 25350.07000914 -.00000615 00000-0 -22416-4 0 9993
2 45538 53.0542 121.7206 0001107 90.6660 269.4455 15.06400574312497
Epoch: Dec 16, 2025 • Age: 23 hours

当前状态

高度 547.1 km
速度 7.59 km/s
星下点 13.22°N, 169.03°W
发射日期 Apr 22, 2020
运行时间 5.6 years
类型 internet

技术详情

分类 Payload
质量 260.00 kg
干质量 248.00 kg
总质量 260.00 kg
长度 0.20 m
直径 2.80 m
跨度 9.00 m
形状 Box + pan
制造商 SPXS
平台类型 Starlink
阶段状态 In Orbit
所有者/国家 SPXS/US

大型星座

Loading constellations...